Weather History for Billings, MT

Change the Weather History Date:

Friday, March 2, 2012

  Actual Average Record
Temperature  
Mean Temperature 30 °F 34 °F  
Max Temperature 38 °F 44 °F 67 °F (1992)
Min Temperature 21 °F 23 °F -21 °F (2014)
Degree Days  
Heating Degree Days 35 31  
Month to date heating degree days 66 62  
Since 1 July heating degree days 4574 5027  
Cooling Degree Days 0 0  
Month to date cooling degree days 0 0  
Year to date cooling degree days 0 0  
Moisture  
Dew Point 12 °F    
Average Humidity 51    
Maximum Humidity 75    
Minimum Humidity 27    
Precipitation  
Precipitation T in 0.02 in 0.82 in (1966)
Month to date precipitation T 0.04  
Year to date precipitation 0.85 1.00  
Snow  
Snow T in 0.20 in 8.90 in (1966)
Month to date snowfall T 0.5  
Since 1 July snowfall 28.8 35.0  
Snow Depth 0.00 in    
Sea Level Pressure  
Sea Level Pressure 30.05 in    
Wind  
Wind Speed 15 mph (WNW)    
Max Wind Speed 29 mph    
Max Gust Speed 36 mph    
Visibility 10 miles    
Events      
T = Trace of Precipitation, MM = Missing Value Source: NWS Daily Summary

Daily Weather History Graph

Daily Weather History Graph

Search for Another Location

Airport:

Trip Planner

Search our weather history database for the weather conditions in past years. The results will help you decide how hot, cold, wet, or windy it might be!

Date:

Astronomy

Mar. 02, 2012 Rise Set
Actual Time 6:49 AM MST 6:03 PM MST
Civil Twilight 6:20 AM MST 6:32 PM MST
Nautical Twilight 5:45 AM MST 7:07 PM MST
Astronomical Twilight 5:11 AM MST 7:42 PM MST
Moon 12:03 PM MST (3/2) 2:57 AM MST (3/2)
Length of Visible Light 12h 12m
Length of Day
11h 13m
Waxing Gibbous, 67% of the Moon is Illuminated
Mar 2
Waxing Gibbous
Mar 8
Full
Mar 14
Last Quarter
Mar 22
New
Mar 30
First Quarter

Hourly Weather History & Observations

Time (MST) Temp. Windchill Dew Point Humidity Pressure Visibility Wind Dir Wind Speed Gust Speed Precip Events Conditions
12:53 AM 26.1 °F 20.5 °F 19.0 °F 75% 29.97 in 10.0 mi West 4.6 mph - N/A   Overcast
1:53 AM 26.1 °F 15.6 °F 19.0 °F 75% 29.99 in 10.0 mi WNW 11.5 mph - N/A   Overcast
2:53 AM 24.1 °F 12.5 °F 16.0 °F 71% 30.01 in 10.0 mi WNW 12.7 mph - N/A   Scattered Clouds
3:53 AM 23.0 °F 11.7 °F 15.1 °F 72% 30.02 in 10.0 mi West 11.5 mph - N/A   Mostly Cloudy
4:53 AM 23.0 °F 11.1 °F 12.2 °F 63% 29.95 in 10.0 mi NW 12.7 mph - N/A   Scattered Clouds
5:53 AM 21.9 °F 14.5 °F 14.0 °F 72% 30.07 in 10.0 mi SW 5.8 mph - N/A   Mostly Cloudy
6:53 AM 23.0 °F 11.7 °F 14.0 °F 68% 30.09 in 10.0 mi WNW 11.5 mph - N/A   Mostly Cloudy
7:53 AM 24.1 °F 13.1 °F 12.9 °F 62% 30.12 in 10.0 mi NW 11.5 mph - N/A   Scattered Clouds
8:53 AM 28.0 °F 18.1 °F 15.1 °F 58% 30.12 in 10.0 mi WNW 11.5 mph - N/A   Partly Cloudy
9:53 AM 33.1 °F 23.0 °F 12.0 °F 42% 30.11 in 10.0 mi WNW 15.0 mph 25.3 mph N/A   Partly Cloudy
10:53 AM 33.1 °F 21.9 °F 10.9 °F 40% 30.11 in 10.0 mi NW 18.4 mph 28.8 mph N/A   Scattered Clouds
11:53 AM 33.1 °F 22.6 °F 12.9 °F 43% 30.11 in 10.0 mi NW 16.1 mph 27.6 mph 0.00 in   Mostly Cloudy
12:53 PM 34.0 °F 22.7 °F 7.0 °F 32% 30.08 in 10.0 mi NW 19.6 mph 28.8 mph 0.00 in   Overcast
1:53 PM 36.0 °F 24.2 °F 7.0 °F 30% 30.06 in 10.0 mi WNW 24.2 mph 31.1 mph N/A   Overcast
2:53 PM 36.0 °F 24.4 °F 6.1 °F 29% 30.06 in 10.0 mi WNW 23.0 mph 29.9 mph N/A   Mostly Cloudy
3:53 PM 37.0 °F 27.4 °F 6.1 °F 28% 30.05 in 10.0 mi West 17.3 mph - N/A   Mostly Cloudy
4:53 PM 36.0 °F 25.0 °F 5.0 °F 27% 30.04 in 10.0 mi NW 20.7 mph - N/A   Mostly Cloudy
5:53 PM 33.1 °F 24.4 °F 6.1 °F 32% 30.04 in 10.0 mi NW 11.5 mph - N/A   Mostly Cloudy
6:53 PM 33.1 °F 24.9 °F 10.0 °F 38% 30.05 in 10.0 mi NW 10.4 mph - N/A   Mostly Cloudy
7:53 PM 33.1 °F 24.9 °F 10.0 °F 38% 30.05 in 10.0 mi WNW 10.4 mph - N/A   Overcast
8:53 PM 34.0 °F 23.4 °F 12.0 °F 40% 30.04 in 10.0 mi WNW 17.3 mph - N/A   Overcast
9:53 PM 34.0 °F 24.2 °F 12.0 °F 40% 30.03 in 10.0 mi WNW 15.0 mph 24.2 mph N/A   Overcast
10:53 PM 35.1 °F 22.7 °F 10.9 °F 37% 30.03 in 10.0 mi WNW 25.3 mph 35.7 mph N/A   Overcast
11:53 PM 34.0 °F 23.4 °F 12.0 °F 40% 30.04 in 10.0 mi WNW 17.3 mph 25.3 mph N/A   Overcast